Temp
60 59 58 58 58 56 56 56 56 58 58 58 56 56 55 57 57 57 56 56 56 55 55 55 55 52 52 50 50 50 48 48 50 46 45 49 59 59 56 56 54 50 54
58 59 58 57 56 56 55 55 56 56 57 57 56 56 56 56 55 56 56 56 55 55 55 54 54 53 51 51 50 49 47 48 47 42 41 40 49 55 55 56 50 48 51
59 58 57 58 57 57 55 55 55 55 56 55 57 56 58 57 55 54 54 55 55 54 54 54 54 54 53 48 48 48 47 44 50 49 42 36 35 39 52 52 49 45 48
58 59 57 56 57 57 55 56 55 55 56 54 54 52 52 50 52 53 54 54 55 55 54 54 54 54 54 51 50 52 47 46 43 45 49 47 42 37 36 50 47 45 46
58 57 57 57 57 56 56 56 55 54 54 53 53 53 52 54 54 54 53 53 54 54 54 54 54 53 53 53 51 50 49 48 45 45 46 41 43 44 38 36 43 44 44
58 58 58 56 56 56 55 54 54 54 53 53 52 51 50 51 51 52 52 52 53 54 54 53 53 53 53 53 52 51 50 49 49 47 46 45 38 40 38 38 42 39 41
57 56 54 54 54 54 54 54 54 53 53 53 53 52 51 51 51 51 51 51 52 52 52 52 52 53 52 52 53 52 51 51 48 47 46 46 46 46 42 42 42 39 40
57 55 55 55 54 54 54 54 54 53 53 53 52 53 52 53 53 53 52 52 52 53 53 52 53 53 53 53 53 52 52 51 50 48 49 49 46 45 42 42 40 38 39
55 55 55 55 55 55 54 54 53 53 53 53 53 53 54 53 52 52 53 53 53 53 53 52 52 53 53 53 53 51 51 51 51 50 47 46 43 42 44 44 47 41 36
55 55 55 55 55 55 55 55 54 53 53 52 53 53 53 53 53 53 53 52 53 53 52 52 52 52 53 53 53 52 52 51 51 50 48 47 46 42 45 47 47 48 41
55 55 55 56 55 55 54 54 54 53 53 53 53 53 53 53 53 53 53 53 53 53 52 52 51 52 52 49 51 52 51 50 49 50 49 48 48 47 43 45 48 46 46
56 56 56 55 54 54 54 53 54 53 53 53 53 53 53 53 53 54 54 54 53 53 53 52 51 51 52 51 48 50 51 50 48 48 48 48 48 48 48 45 42 44 48
56 56 55 54 54 54 54 54 54 53 54 53 53 52 52 52 52 53 53 53 53 53 53 52 51 50 51 51 47 50 51 50 49 49 48 48 47 44 50 48 47 45 46
55 55 54 55 55 55 54 53 54 54 53 52 52 52 52 52 52 52 52 52 52 52 52 52 51 50 51 52 48 50 51 50 50 49 49 49 47 44 46 47 48 47 42
54 54 53 54 55 54 54 54 54 53 53 52 52 52 53 52 52 51 51 51 51 52 52 51 51 50 51 53 49 50 51 49 49 49 50 50 48 48 48 47 46 47 41
54 54 54 54 54 54 53 52 52 52 53 51 52 52 51 51 50 50 50 50 50 51 51 50 49 49 51 48 50 50 51 50 48 48 49 50 49 49 46 47 47 46 43
56 54 53 54 54 54 53 52 52 53 52 51 52 52 51 50 50 50 50 49 49 50 50 49 49 48 50 48 49 50 51 49 49 48 48 48 51 49 46 45 47 46 46
57 56 56 54 55 55 54 54 53 52 50 50 51 51 51 50 50 50 49 50 50 49 48 48 48 47 49 47 48 49 52 51 50 48 47 47 48 48 46 46 46 44 45
60 60 59 56 56 54 54 52 51 51 50 49 50 51 51 50 50 49 49 50 49 49 49 48 48 47 48 48 47 49 52 50 49 49 48 47 48 49 48 46 44 44 44
60 57 58 57 56 54 53 51 50 50 49 50 50 51 51 50 49 49 49 50 49 48 48 47 49 47 47 48 47 49 52 49 49 49 49 46 46 48 47 45 44 36 35
56 56 56 54 55 54 52 49 51 49 52 51 50 50 50 49 50 50 49 49 49 48 48 47 48 48 48 48 47 48 50 49 48 47 47 48 46 46 46 45 46 42 45
52 52 52 53 55 53 50 49 49 52 52 50 49 49 50 50 50 49 49 49 48 48 48 48 48 49 49 47 48 48 48 48 48 47 48 48 45 45 44 45 44 43 43
52 53 52 52 53 51 51 49 51 52 49 48 48 49 49 50 50 48 48 48 49 47 48 48 47 48 49 49 48 47 47 48 47 49 45 44 44 44 45 43 43 44 46
52 52 50 51 49 50 49 51 53 51 49 48 48 49 49 49 49 49 49 48 48 48 47 47 47 48 48 50 50 51 51 49 49 48 47 44 43 44 44 46 46 46 45
52 51 50 50 50 49 48 50 51 49 48 48 48 48 48 48 49 49 49 48 50 48 47 47 47 46 47 48 47 48 48 48 47 45 46 46 46 45 45 45 45 45 45
52 49 50 50 50 49 47 48 48 48 49 48 48 47 47 47 47 47 47 46 45 45 45 46 46 50 48 46 46 46 45 44 43 45 43 43 43 43 43 43 43 44 43
MSLP
1026.22 1026.77 1027.35 1027.97 1028.22 1028.30 1028.43 1028.36 1028.30 1028.20 1028.13 1027.85 1027.61 1027.43 1027.31 1027.15 1027.03 1027.06 1026.89 1026.64 1026.38 1025.98 1025.42 1024.89 1024.40 1024.24 1023.71 1023.34 1022.91 1022.34 1021.87 1021.40 1020.77 1020.07 1019.24 1018.06 1016.18 1015.58 1015.71 1015.28 1015.16 1014.82 1013.78
1025.60 1026.28 1027.04 1027.53 1027.75 1027.90 1028.01 1028.33 1028.15 1028.15 1028.08 1027.96 1027.92 1027.82 1027.58 1027.36 1027.35 1027.17 1026.94 1026.78 1026.46 1026.10 1025.54 1024.95 1024.31 1024.02 1023.66 1023.15 1022.80 1022.31 1021.65 1021.17 1020.74 1020.31 1019.30 1017.78 1016.58 1015.73 1015.87 1015.12 1015.33 1015.07 1013.93
1024.88 1025.60 1026.46 1026.92 1027.25 1027.44 1027.80 1027.95 1028.03 1028.06 1028.03 1028.11 1027.96 1027.90 1027.71 1027.31 1027.16 1027.12 1026.87 1026.61 1026.38 1025.95 1025.59 1025.02 1024.44 1024.04 1023.63 1023.24 1022.83 1022.37 1021.77 1021.12 1020.21 1019.98 1019.70 1018.72 1017.81 1017.05 1015.63 1015.08 1015.24 1014.99 1013.86
1024.57 1025.26 1026.01 1026.39 1026.82 1027.31 1027.79 1027.94 1027.99 1027.99 1027.96 1028.10 1027.85 1027.83 1027.62 1027.32 1027.32 1027.08 1026.80 1026.50 1026.28 1025.89 1025.55 1025.06 1024.67 1024.18 1023.69 1023.23 1022.77 1021.98 1021.81 1021.33 1020.66 1020.24 1019.54 1019.17 1018.88 1017.86 1016.43 1015.47 1015.22 1014.88 1013.83
1024.02 1024.78 1025.42 1026.06 1026.76 1027.25 1027.53 1027.75 1027.93 1027.95 1028.08 1028.10 1028.08 1028.01 1027.70 1027.53 1027.33 1027.04 1026.76 1026.41 1026.13 1025.89 1025.55 1025.22 1024.83 1024.31 1023.72 1023.27 1022.74 1022.16 1021.68 1021.24 1020.87 1020.37 1019.55 1019.48 1018.65 1018.19 1017.72 1016.14 1015.02 1014.63 1014.16
1023.59 1024.50 1025.29 1026.09 1026.63 1027.14 1027.51 1027.72 1027.81 1027.98 1028.08 1028.04 1028.14 1028.01 1027.76 1027.53 1027.16 1026.82 1026.59 1026.21 1025.98 1025.63 1025.37 1025.22 1024.68 1024.11 1023.63 1023.13 1022.59 1022.18 1021.67 1021.29 1020.75 1020.14 1019.66 1019.07 1019.12 1018.09 1017.67 1016.78 1015.69 1015.47 1014.53
1023.26 1024.15 1025.05 1025.78 1026.27 1026.72 1027.22 1027.35 1027.50 1027.50 1027.69 1027.78 1027.74 1027.60 1027.58 1027.41 1027.03 1026.73 1026.46 1026.14 1025.66 1025.38 1025.19 1025.04 1024.53 1023.97 1023.66 1023.09 1022.54 1022.04 1021.63 1021.27 1020.84 1020.27 1019.74 1019.35 1018.59 1018.10 1017.81 1016.91 1016.02 1015.52 1014.88
1022.77 1023.62 1024.36 1025.00 1025.51 1026.11 1026.43 1026.60 1026.81 1027.01 1027.27 1027.36 1027.31 1027.27 1027.19 1026.97 1026.83 1026.60 1026.33 1025.97 1025.72 1025.39 1025.17 1024.97 1024.48 1024.01 1023.51 1022.99 1022.49 1021.94 1021.49 1021.04 1020.58 1020.13 1019.67 1019.02 1018.68 1018.35 1018.01 1017.13 1016.47 1015.65 1015.25
1022.34 1023.16 1023.99 1024.61 1025.16 1025.64 1025.95 1026.24 1026.63 1026.94 1027.09 1027.10 1027.06 1026.98 1026.77 1026.75 1026.62 1026.46 1026.35 1025.97 1025.61 1025.38 1025.19 1024.91 1024.41 1023.77 1023.22 1022.67 1022.28 1021.86 1021.37 1020.97 1020.45 1020.06 1019.78 1019.24 1019.07 1018.48 1017.92 1017.10 1016.25 1016.13 1015.49
1021.84 1022.64 1023.35 1023.97 1024.56 1025.02 1025.53 1026.04 1026.43 1026.52 1026.60 1026.79 1026.84 1026.75 1026.68 1026.59 1026.45 1026.33 1025.97 1025.69 1025.40 1025.20 1024.86 1024.50 1024.20 1023.73 1023.09 1022.53 1022.08 1021.70 1021.21 1020.81 1020.37 1020.01 1019.58 1019.01 1018.68 1018.36 1017.60 1017.04 1016.39 1015.86 1015.75
1021.11 1021.92 1022.75 1023.37 1024.08 1024.70 1025.19 1025.56 1025.90 1026.07 1026.11 1026.21 1026.27 1026.31 1026.34 1026.27 1026.02 1025.81 1025.54 1025.29 1025.12 1024.71 1024.46 1024.15 1023.89 1023.47 1022.99 1022.96 1022.10 1021.54 1021.03 1020.66 1020.29 1019.89 1019.50 1018.87 1018.37 1017.79 1017.64 1017.13 1016.26 1015.83 1015.63
1020.37 1021.22 1022.04 1022.86 1023.55 1024.08 1024.56 1024.96 1025.27 1025.49 1025.63 1025.80 1025.87 1025.79 1025.84 1025.72 1025.55 1025.26 1025.00 1024.80 1024.55 1024.27 1024.04 1023.80 1023.49 1023.11 1022.73 1022.52 1022.18 1021.42 1020.93 1020.56 1020.15 1019.84 1019.36 1018.71 1018.37 1017.62 1017.33 1017.02 1016.75 1016.04 1015.44
1019.71 1020.60 1021.46 1022.08 1022.75 1023.41 1023.95 1024.37 1024.64 1024.91 1025.23 1025.42 1025.50 1025.47 1025.40 1025.26 1025.18 1025.04 1024.87 1024.69 1024.40 1023.99 1023.65 1023.38 1023.19 1022.86 1022.50 1022.06 1021.92 1021.30 1020.83 1020.53 1020.22 1019.89 1019.47 1018.90 1018.43 1018.06 1017.01 1016.69 1016.44 1016.14 1015.76
1018.90 1019.75 1020.58 1021.22 1021.88 1022.58 1023.17 1023.63 1023.97 1024.45 1024.78 1025.05 1025.12 1025.07 1025.00 1025.07 1025.09 1024.92 1024.82 1024.63 1024.33 1023.97 1023.65 1023.38 1023.13 1022.79 1022.38 1021.84 1021.62 1021.20 1020.69 1020.31 1020.00 1019.82 1019.44 1019.06 1018.70 1018.12 1017.46 1016.91 1016.47 1016.28 1016.21
1018.04 1018.89 1019.59 1020.28 1021.00 1021.80 1022.57 1023.10 1023.53 1023.91 1024.29 1024.59 1024.71 1024.77 1024.82 1024.88 1024.86 1024.90 1024.69 1024.46 1024.24 1023.94 1023.62 1023.36 1023.01 1022.70 1022.30 1021.76 1021.46 1020.93 1020.43 1020.14 1019.88 1019.49 1019.18 1018.90 1018.71 1018.19 1017.71 1017.28 1016.86 1016.46 1016.50
1016.87 1017.89 1018.86 1019.61 1020.11 1020.84 1021.65 1022.45 1023.07 1023.50 1023.95 1024.24 1024.38 1024.53 1024.65 1024.63 1024.68 1024.66 1024.57 1024.41 1024.12 1023.79 1023.51 1023.25 1023.01 1022.64 1022.23 1022.07 1021.37 1020.85 1020.30 1020.02 1019.70 1019.38 1019.07 1018.72 1018.40 1018.13 1018.03 1017.73 1017.34 1017.09 1016.71
1015.68 1016.68 1017.65 1018.59 1019.34 1020.05 1020.93 1021.57 1022.31 1022.95 1023.43 1023.74 1023.94 1024.18 1024.32 1024.36 1024.35 1024.34 1024.28 1024.11 1023.88 1023.62 1023.38 1023.12 1022.87 1022.57 1022.17 1021.92 1021.34 1020.82 1020.19 1019.98 1019.56 1019.36 1018.97 1018.69 1018.24 1018.02 1017.97 1017.88 1017.45 1017.25 1017.08
1014.64 1015.63 1016.64 1017.68 1018.60 1019.48 1020.30 1021.05 1021.79 1022.38 1022.90 1023.20 1023.40 1023.64 1023.80 1023.87 1023.97 1023.98 1023.92 1023.82 1023.53 1023.33 1023.16 1022.96 1022.74 1022.48 1021.93 1021.73 1021.25 1020.72 1019.93 1019.71 1019.48 1019.28 1019.16 1018.86 1018.35 1017.98 1017.87 1017.76 1017.25 1017.29 1017.07
1013.69 1014.64 1015.73 1016.84 1017.95 1018.93 1019.76 1020.48 1021.08 1021.62 1022.14 1022.45 1022.76 1023.05 1023.25 1023.31 1023.40 1023.44 1023.40 1023.36 1023.20 1023.06 1022.92 1022.74 1022.46 1022.16 1021.78 1021.40 1021.01 1020.51 1019.70 1019.42 1019.17 1019.15 1019.09 1018.99 1018.43 1017.94 1017.63 1017.51 1017.31 1017.16 1016.94
1013.58 1014.36 1015.25 1016.36 1017.27 1018.25 1019.35 1020.08 1020.47 1020.86 1021.07 1021.50 1021.92 1022.32 1022.63 1022.80 1022.83 1022.88 1022.98 1022.91 1022.89 1022.73 1022.57 1022.34 1022.12 1021.96 1021.64 1021.22 1020.89 1020.39 1019.64 1019.28 1019.05 1018.95 1018.97 1018.91 1018.68 1018.05 1017.74 1017.38 1017.21 1017.18 1017.30
1013.90 1014.55 1015.16 1015.72 1016.53 1017.61 1018.66 1019.41 1019.87 1020.03 1020.46 1021.06 1021.57 1021.88 1022.10 1022.32 1022.40 1022.50 1022.55 1022.43 1022.35 1022.25 1022.11 1021.94 1021.80 1021.46 1021.28 1020.90 1020.62 1020.27 1019.69 1019.19 1018.81 1018.80 1018.71 1018.60 1018.44 1018.03 1017.80 1017.60 1017.15 1016.99 1016.89
1014.12 1014.69 1015.12 1015.57 1016.27 1017.10 1017.83 1018.38 1018.83 1019.52 1020.27 1020.83 1021.17 1021.44 1021.62 1021.82 1021.97 1022.04 1022.02 1021.96 1021.88 1021.66 1021.47 1021.32 1021.02 1020.78 1020.81 1020.60 1020.25 1019.98 1019.72 1019.36 1018.76 1018.68 1018.69 1018.50 1018.49 1018.23 1018.12 1017.73 1017.55 1017.31 1016.98
1013.70 1014.55 1014.97 1015.36 1015.97 1016.72 1017.23 1017.46 1017.91 1018.91 1019.72 1020.28 1020.61 1020.96 1021.23 1021.34 1021.47 1021.47 1021.37 1021.33 1021.29 1021.27 1020.95 1020.76 1020.56 1020.34 1020.28 1020.15 1019.95 1019.73 1019.57 1019.28 1018.97 1018.85 1018.95 1018.81 1018.50 1018.36 1018.02 1018.02 1017.67 1017.25 1016.79
1013.38 1013.86 1014.66 1015.04 1015.55 1016.27 1016.87 1017.18 1017.75 1018.55 1019.12 1019.46 1019.93 1020.32 1020.62 1020.79 1020.95 1021.05 1021.02 1020.82 1020.73 1020.68 1020.57 1020.37 1020.14 1019.97 1019.86 1019.80 1019.65 1019.30 1018.91 1018.82 1018.69 1018.69 1018.70 1018.72 1018.46 1018.35 1018.18 1017.69 1017.42 1017.16 1017.03
1013.02 1013.54 1013.80 1014.31 1014.90 1015.73 1016.35 1016.99 1017.46 1018.21 1018.52 1018.88 1019.30 1019.68 1019.98 1020.23 1020.28 1020.38 1020.39 1020.32 1020.28 1020.36 1020.32 1020.15 1020.02 1019.81 1019.59 1019.55 1019.82 1019.43 1019.10 1018.92 1018.83 1018.93 1018.56 1018.29 1018.03 1017.79 1017.75 1017.53 1017.29 1017.01 1016.78
1012.54 1013.00 1013.22 1013.60 1014.14 1014.95 1015.63 1016.30 1017.04 1017.48 1017.85 1018.29 1018.67 1019.03 1019.33 1019.58 1019.78 1019.84 1019.86 1020.11 1020.24 1020.23 1020.21 1020.13 1020.05 1019.59 1019.60 1019.65 1019.51 1019.36 1019.25 1019.11 1019.02 1018.61 1018.54 1018.39 1018.19 1017.89 1017.75 1017.61 1017.36 1017.13 1016.94
Wind_Speed
5 6 5 3 2 4 4 4 5 6 5 5 5 5 5 5 5 6 8 9 9 10 10 8 9 10 10 10 11 9 11 9 10 8 8 11 9 7 9 10 8 13 13
9 8 7 5 4 4 4 3 4 4 4 4 4 4 5 4 5 5 7 9 9 9 9 10 9 10 9 10 10 13 8 8 6 6 7 7 10 10 14 8 7 14 13
10 8 8 7 6 6 4 5 4 4 3 5 4 3 2 3 4 6 6 7 8 8 9 10 9 10 9 8 9 10 12 9 11 11 5 4 5 11 6 10 7 13 10
10 8 8 8 7 6 4 5 5 5 3 3 4 5 4 5 5 5 6 7 8 9 9 10 9 10 8 10 10 8 8 8 9 9 5 8 7 4 7 8 7 10 10
12 11 10 8 6 5 5 5 5 5 3 4 4 4 5 4 4 5 7 7 7 8 9 10 10 10 8 9 11 11 10 7 7 10 10 9 8 6 4 8 11 8 9
13 10 9 7 7 6 6 5 6 4 4 4 4 5 6 6 5 6 5 6 6 5 7 10 9 9 9 10 9 9 11 10 9 8 8 7 6 7 2 7 11 9 6
14 12 11 10 9 8 7 6 6 6 4 5 5 5 6 6 6 7 5 7 6 6 8 10 10 8 9 10 10 10 11 11 10 11 8 8 8 5 7 6 9 6 3
13 13 13 11 11 10 10 9 7 6 5 4 5 4 5 4 5 5 6 6 6 6 8 8 9 9 9 10 10 8 8 11 9 11 11 9 7 7 8 5 7 7 2
14 14 13 12 11 10 10 9 7 6 5 5 5 5 5 5 6 7 6 5 7 6 8 9 10 10 9 9 10 7 9 10 9 9 11 9 8 7 6 8 4 5 4
14 14 13 12 11 11 9 8 7 7 6 5 5 5 5 6 6 6 7 7 8 7 9 9 9 9 10 10 9 8 8 10 8 7 10 9 5 7 6 6 7 5 4
16 15 13 12 12 11 10 9 8 8 7 6 5 5 5 6 6 6 6 7 8 8 9 9 9 9 9 9 10 10 9 10 10 9 10 10 11 5 5 7 7 5 5
15 15 14 13 12 12 11 10 9 8 8 6 6 6 5 6 6 6 6 6 7 7 7 8 9 9 9 7 9 10 10 9 9 9 10 10 9 9 9 3 8 7 7
16 15 14 14 14 13 11 11 10 9 8 7 7 6 6 6 6 6 7 7 8 8 7 7 7 8 9 8 7 9 10 9 8 8 10 11 10 12 9 8 7 7 5
17 16 15 15 14 13 12 12 11 10 8 8 8 7 6 6 6 6 7 7 7 8 7 7 8 8 9 8 6 7 9 9 7 7 8 9 10 10 10 9 10 7 7
17 18 17 16 15 14 13 12 11 10 9 9 8 7 6 6 6 6 6 7 7 7 7 7 8 8 7 5 9 9 9 9 9 8 7 7 10 14 10 8 9 10 4
19 19 18 17 17 16 14 12 12 11 9 9 8 7 6 6 6 6 6 6 6 6 6 6 7 8 5 10 14 14 9 10 8 8 8 8 8 10 6 10 11 8 8
19 19 20 18 16 16 15 14 13 11 11 10 8 7 6 6 6 5 5 6 6 5 6 6 6 7 8 11 13 14 9 9 8 8 8 8 6 7 2 5 8 9 8
18 18 17 17 17 14 14 13 12 12 11 10 9 8 7 6 6 5 5 5 5 5 5 6 7 7 6 11 13 14 8 8 8 8 8 9 8 9 3 5 7 4 5
16 16 16 15 15 15 14 14 14 13 12 12 10 9 8 7 6 6 6 6 6 5 5 6 8 8 8 10 12 12 8 8 8 7 7 8 9 12 9 5 6 7 5
11 13 14 15 15 15 14 14 14 14 14 13 11 10 8 8 8 7 7 6 6 7 6 7 7 8 9 10 12 11 7 8 7 7 6 6 10 13 11 7 5 3 3
10 11 13 15 15 15 15 15 14 16 13 11 10 10 9 8 8 7 7 6 7 7 7 8 7 7 6 8 10 12 8 7 7 6 5 5 12 12 11 9 6 6 6
10 12 12 13 13 15 16 16 16 12 11 10 10 10 9 7 6 8 7 7 7 7 7 7 6 4 4 6 8 11 10 10 8 6 5 6 11 11 10 9 11 9 7
10 11 11 12 13 14 15 16 15 13 11 11 10 10 9 8 8 8 8 6 6 6 6 5 5 5 4 5 7 9 10 11 8 6 7 8 8 8 5 9 10 8 5
11 11 12 13 14 14 15 14 12 12 12 12 11 9 9 9 8 6 6 6 5 5 5 5 5 5 5 4 5 7 6 7 6 6 4 5 6 2 4 5 5 4 5
10 11 13 13 14 14 14 13 12 12 12 11 10 10 8 9 8 8 7 6 6 5 5 5 5 6 6 5 8 8 7 7 8 8 3 3 4 3 4 4 4 4 4
10 12 14 14 14 14 14 14 14 14 13 11 9 8 8 7 7 7 6 10 12 11 10 11 9 6 6 8 8 8 8 7 8 4 3 4 4 4 3 4 4 5 5
Wind_Direction
180 193 202 210 272 228 276 301 314 344 339 346 352 351 359 360 2 5 355 357 352 351 346 346 350 342 335 332 323 327 326 323 332 319 313 312 320 333 335 299 326 304 296
202 202 207 218 228 243 240 260 288 316 331 329 346 333 337 349 347 346 352 356 351 351 344 343 345 347 341 334 327 330 333 317 350 311 312 317 325 352 318 324 351 326 310
210 206 205 218 214 225 226 247 275 294 317 330 325 325 309 281 343 355 351 348 350 350 349 345 343 344 343 339 331 322 336 330 336 341 313 323 318 320 319 321 349 322 310
214 209 204 215 219 218 223 241 260 281 300 315 317 332 331 331 351 341 344 347 351 352 352 348 349 344 344 344 342 336 330 336 333 338 311 318 321 306 315 333 339 321 322
206 204 206 211 211 208 222 247 254 258 280 294 319 329 332 335 336 339 338 353 352 351 349 346 340 342 342 347 343 344 343 334 338 331 326 325 305 313 287 310 328 336 332
201 207 201 201 211 202 222 238 258 281 278 291 308 319 323 330 328 337 338 347 348 339 348 348 345 338 337 343 342 343 344 343 330 332 325 325 310 313 300 299 328 329 314
199 201 198 204 208 209 219 227 235 261 257 280 278 291 314 312 309 331 336 331 335 344 347 344 342 343 344 335 336 336 338 339 334 336 339 328 317 333 313 315 328 325 315
199 202 201 204 205 208 212 217 224 240 244 275 285 287 295 303 306 319 321 320 326 330 330 336 336 338 338 345 345 332 339 337 337 334 337 323 328 341 309 317 326 332 314
198 203 202 206 211 211 216 222 225 242 250 264 274 278 280 299 303 306 312 317 312 321 326 328 332 341 333 340 348 342 339 339 339 337 340 346 345 315 320 304 327 324 321
200 202 204 206 208 212 214 219 223 237 242 256 268 285 299 299 297 295 303 315 313 314 316 323 324 327 339 338 347 345 342 336 343 340 331 339 336 342 321 316 310 330 320
202 201 203 205 208 210 213 215 216 226 233 232 249 264 275 285 283 284 297 308 313 315 315 321 321 320 325 331 330 344 343 337 339 338 338 339 342 352 328 341 316 306 330
200 201 200 202 205 209 210 212 214 221 229 235 242 249 261 267 272 280 292 299 300 306 317 316 321 320 319 333 321 329 339 339 336 340 339 347 344 355 352 9 347 356 323
200 200 200 202 206 209 208 211 215 221 228 230 236 243 251 262 275 286 295 300 303 304 311 312 317 322 319 318 317 315 337 334 331 331 332 335 337 337 348 352 349 341 332
201 202 203 205 207 208 206 206 212 216 222 230 237 244 257 269 281 293 298 304 307 305 317 320 318 320 318 307 314 313 341 335 330 326 321 329 332 326 341 355 342 352 351
203 206 206 205 206 204 206 210 213 212 219 230 235 242 253 268 280 287 295 301 305 310 316 316 326 329 320 329 332 310 334 334 329 323 323 323 328 333 359 352 353 348 29
207 206 208 209 206 203 201 203 212 215 216 228 240 245 253 266 278 290 300 304 304 307 312 319 323 323 322 328 321 337 327 335 326 328 326 325 311 345 342 355 9 7 355
207 205 205 208 208 203 198 200 202 206 214 227 235 242 250 262 270 285 287 292 300 309 313 315 320 320 320 325 322 326 322 332 331 327 321 325 329 331 302 331 3 3 360
209 208 203 204 207 201 196 194 196 203 212 222 228 233 240 251 260 270 278 287 290 296 306 309 313 311 311 318 325 322 316 327 332 332 326 321 323 340 288 303 338 356 334
211 208 202 199 194 197 193 192 193 200 207 217 221 224 230 241 250 256 264 275 279 291 299 300 302 305 310 319 321 320 322 327 331 338 333 336 325 339 360 317 336 344 333
204 198 194 192 191 191 191 195 200 203 209 212 213 214 219 232 243 252 258 267 269 281 287 292 291 296 299 309 315 320 323 325 329 339 344 356 332 340 343 328 312 277 269
203 194 190 193 194 182 184 199 205 214 213 209 210 213 217 228 242 253 255 258 267 277 280 284 291 287 291 303 310 317 322 328 323 337 344 342 337 336 342 336 327 340 327
196 194 194 197 191 183 186 196 209 209 209 206 209 214 219 224 236 241 252 254 261 272 279 284 291 287 295 297 307 313 322 326 314 341 332 329 334 336 353 347 347 344 313
195 197 202 195 190 190 197 201 204 198 198 204 212 218 223 229 232 241 248 255 258 268 281 284 293 299 314 300 300 300 316 317 317 350 342 313 321 333 345 10 355 343 353
206 190 197 201 197 196 202 211 198 192 198 203 209 216 225 229 232 237 245 250 258 267 277 282 289 304 305 313 323 316 313 310 307 345 339 322 306 326 350 357 11 12 3
206 201 200 204 206 194 201 201 196 193 201 205 208 215 221 223 236 236 247 246 254 263 283 288 289 298 304 331 305 311 323 328 341 331 321 333 339 3 16 9 6 4 2
206 207 212 210 204 196 199 196 195 196 200 205 207 211 214 219 228 242 251 226 250 264 261 264 268 288 284 302 316 313 322 326 338 308 341 341 341 6 1 350 355 357 353